Miscellaneous Local Product
Issued by NWS North Platte, NE

Home | Current Version | Previous Version | Graphics & Text | Print | Product List | Glossary On
Versions: 1 2 3 4 5 6 7 8 9 10 11 12 13 14 15 16 17 18 19 20 21 22 23 24 25 26 27 28 29 30 31 32 33 34 35 36 37 38 39 40 41 42 43 44 45 46 47 48 49 50
348
AXUS43 KLBF 300210
MISLBF


WESTERN AND NORTH CENTRAL NEBRASKA HOURLY WEATHER ROUNDUP
NATIONAL WEATHER SERVICE NORTH PLATTE NE
900 PM CDT FRI APR 29 2016

NOTE: "FAIR" INDICATES FEW OR NO CLOUDS BELOW 12,000 FEET WITH NO
SIGNIFICANT WEATHER AND/OR OBSTRUCTIONS TO VISIBILITY.

NOTE: STATIONS NOT REPORTING VARIABLES SUCH AS SKY/WEATHER OR
PRESSURE ARE PROVIDED BY RAWS AND APRS NETWORKS AND ARE NOT UNDER
NATIONAL WEATHER SERVICE QUALITY CONTROL.

...OBSERVATIONS IN AND NEAR THE EASTERN PANHANDLE OF NEBRASKA...

CITY           SKY/WX    TMP DP  RH WIND       PRES   REMARKS
PINE RIDGE     CLOUDY    38  35  89 E12       29.99S WCI  30
CHADRON        CLOUDY    41  35  79 NE13      29.98S
ALLIANCE       LGT SNOW  33  32  96 NE8       29.93F FOG     WCI  26
SIDNEY         LGT SNOW  33  31  92 N10       29.91S FOG     WCI  25
CRESCENT LAKE    N/A     33  32  97 NE8         N/A  WCI  26
BIG SPRINGS      N/A     35  33  94 NE6         N/A  WCI  30
$$

...OBSERVATIONS IN NORTHERN NEBRASKA AND FAR SOUTHERN SOUTH DAKOTA...

CITY           SKY/WX    TMP DP  RH WIND       PRES   REMARKS
WINNER         CLOUDY    44  38  79 SE9       30.05R
VALENTINE      CLOUDY    40  38  93 NE14      30.00F WCI  32
THEDFORD       RAIN      40  39  96 NE10      29.96S WCI  33
AINSWORTH      DRIZZLE   39  38  97 NE14G21   29.99S WCI  31
O`NEILL        CLOUDY    42  40  94 NE7       30.02S FOG
ORD            CLOUDY    42  39  89 NE12      29.93F
BROKEN BOW     CLOUDY    40  38  93 NE21G28   29.90F WCI  30
VALENTINE NWR    N/A     38  37  95 NE10        N/A  WCI  31
BUTTE            N/A     42  40  91 MISG        N/A
HALSEY           N/A     39  38  95 NE8G15      N/A  WCI  33
CHAMBERS         N/A     41  40  95 N5          N/A
EWING            N/A     42  41  95 E10         N/A
$$

...OBSERVATIONS IN SOUTHWEST NEBRASKA AND FAR NORTHEAST COLORADO...

CITY           SKY/WX    TMP DP  RH WIND       PRES   REMARKS
IMPERIAL       LGT SNOW  33  32  96 N15       29.89F FOG     WCI  23
OGALLALA       LGT SNOW  34  33  93 NE6       29.94R WCI  29
NORTH PLATTE   LGT RAIN  40  38  93 NE12      29.90R WCI  33
MCCOOK         RAIN      40  37  89 NE10      29.90R FOG     WCI  33
LEXINGTON      CLOUDY    41  38  91 NE20G28   29.86S
PAXTON           N/A     39  37  92 NE9         N/A  WCI  33
STAPLETON        N/A     38  37  95 NE7G15      N/A  WCI  33
GOTHENBURG       N/A     40  37  89 NE12        N/A  WCI  33
CALLAWAY         N/A     39  38  97 E16         N/A  WCI  30
$$

...OBSERVATIONS IN CENTRAL LINCOLN COUNTY AREA...

CITY           SKY/WX    TMP DP  RH WIND       PRES   REMARKS
N.P. AIRPORT   LGT RAIN  40  38  93 NE12      29.90R WCI  33
N.P. DOWNTOWN    N/A     39  37  94 NE10        N/A  WCI  32
N.P. SOUTHEAST   N/A     39  37  93 NE3         N/A
N.P. HILLCREST   N/A     39  37  94 NE16        N/A  WCI  30
$$

...SOME OBSERVATIONS FROM AROUND THE REGION...

CITY           SKY/WX    TMP DP  RH WIND       PRES   REMARKS
DENVER         FOG       33  30  88 N6        29.89S VSB 1   WCI  28
LARAMIE        LGT SNOW  29  27  92 NE6       29.88S FOG     WCI  23
CHEYENNE       SNOW      32  30  92 N9        29.89F VSB 1/2 WCI  24
SCOTTSBLUFF    LGT SNOW  34  32  92 NW3       29.95S FOG
RAPID CITY     CLOUDY    42  36  79 E9        30.04R
BISMARCK       PTCLDY    53  35  50 E8        30.10R
PIERRE         PTCLDY    45  38  76 E8        30.04S
SIOUX FALLS    CLOUDY    46  39  76 E8        30.04R
OMAHA          CLOUDY    48  42  80 NE9G17    29.96F
GRAND ISLAND   CLOUDY    43  40  89 NE22G28   29.89F
KANSAS CITY    CLOUDY    51  48  89 E18       29.82R
WICHITA        CLOUDY    56  52  86 E13G24    29.70R
OKLAHOMA CITY  CLOUDY    59  58  96 NW15      29.63R FOG
DALLAS         CLOUDY    74  70  87 SE7       29.57R
AMARILLO       PTCLDY    49  44  83 N17       29.80R
DODGE CITY     CLOUDY    44  43  96 N10       29.80R FOG
HAYS           CLOUDY    46  37  71 W6        29.82S
GOODLAND       CLOUDY    32  32 100 N12       29.84S WCI  23
$$




USA.gov is the U.S. government's official web portal to all federal, state and local government web resources and services.